[[{"header":{"parameterUnit":"m.s-1","parameterCategory":1,"la1":30.2991,"la2":30.254,"lo1":-89.0895,"lo2":-89.0444,"dy":0.0017,"dx":0.0017,"nx":28,"ny":28,"refTime":"2025-02-28T09:00:00:Z","depth":0,"parameterNumber":2,"parameterNumberName":"U-component_of_WINDS"},"data":[0,0,0,0,0,0,0,0,0,0,0,0,0,0,0,0,0,0,0,0,0,0,0,0,0,0,0,0,0,0,0,0,0,0,0,0,0,0,0,0,0,0,0,0,0,0,0,0,0,0,0,0,0,0,0,0,0,0,-0.666,-0.666,0,-0.6585,-0.6584,-0.6583,-0.6548,-0.6548,-0.6548,-0.6548,-0.647,-0.6468,-0.6465,0,0,0,0,0,0,0,0,0,0,0,0,0,-0.6776,-0.6774,-0.6661,-0.666,-0.6659,-0.6585,-0.6584,-0.6583,-0.6548,-0.6548,-0.6548,-0.6548,-0.647,-0.6468,-0.6465,0,0,0,0,0,0,0,0,0,0,0,0,0,-0.6716,-0.6774,-0.6661,-0.6632,-0.6629,-0.6585,-0.6584,-0.6582,-0.6548,-0.6548,-0.6548,-0.6548,-0.6471,-0.6468,-0.6465,-0.6443,0,0,-0.6455,-0.6454,0,0,0,0,0,0,0,0,-0.6719,-0.6712,-0.6638,-0.6634,-0.6631,-0.6576,-0.6596,-0.6536,-0.6548,-0.6579,-0.6548,-0.6548,-0.6505,-0.6499,-0.6484,-0.6439,-0.6436,-0.6455,-0.6453,-0.6451,-0.6451,0,0,0,0,0,0,0,-0.6724,-0.6715,-0.663,-0.6637,-0.6632,-0.6624,-0.6615,-0.6584,-0.6542,-0.6576,-0.6573,-0.6565,-0.6503,-0.6488,-0.6482,-0.6435,-0.6455,-0.6452,-0.645,-0.6449,-0.637,-0.637,0,0,0,0,0,0,-0.6732,-0.6718,-0.6633,-0.6628,-0.6676,-0.6622,-0.6612,-0.6593,-0.6542,-0.6535,-0.6565,-0.6564,-0.6493,-0.6486,-0.6479,-0.6451,-0.6451,-0.6448,-0.6447,-0.637,-0.637,-0.637,0,0,0,0,0,0,-0.6735,-0.6725,-0.6636,-0.6673,-0.6661,-0.662,-0.6599,-0.6592,-0.6576,-0.6534,-0.6526,-0.6557,-0.6493,-0.6484,-0.6453,-0.6448,-0.6447,-0.6444,-0.637,-0.637,-0.637,-0.6394,0,0,0,0,0,0,-0.6738,-0.6726,-0.6717,-0.6673,-0.6659,-0.661,-0.6598,-0.659,-0.6571,-0.6568,-0.6524,-0.6517,-0.6492,-0.6458,-0.645,-0.6443,-0.6442,-0.637,-0.637,-0.637,-0.6394,-0.6395,-0.6396,0,0,0,0,0,-0.6743,-0.6726,-0.6717,-0.6706,-0.6646,-0.661,-0.6602,-0.6574,-0.6571,-0.6561,-0.6535,-0.6518,-0.645,-0.6455,-0.6445,-0.6438,-0.6371,-0.637,-0.637,-0.6393,-0.6395,-0.6396,0,0,0,0,0,0,-0.677,-0.672,-0.6709,-0.6677,-0.6648,-0.6604,-0.6591,-0.6576,-0.6547,-0.6546,-0.6512,-0.6503,-0.6475,-0.6453,-0.646,-0.6415,-0.6409,-0.6407,-0.643,-0.6431,-0.6432,-0.6437,-0.6439,0,0,0,0,0,-0.6773,-0.6747,-0.6705,-0.6681,-0.6667,-0.6632,-0.6615,-0.6596,-0.6565,-0.6552,-0.6523,-0.6493,-0.6465,-0.6447,-0.6419,-0.6391,-0.6381,-0.6382,-0.6383,-0.6384,-0.6382,-0.6367,-0.6367,-0.6369,-0.6369,-0.6369,0,0,-0.6777,-0.6747,-0.6732,-0.6686,-0.6661,-0.6636,-0.6622,-0.6595,-0.6576,-0.6548,-0.6517,-0.6495,-0.6459,-0.643,-0.6416,-0.6412,-0.638,-0.6384,-0.6385,-0.6382,-0.6367,-0.6367,-0.6367,-0.6368,-0.6368,-0.6368,0,0,-0.6773,-0.6747,-0.6725,-0.6701,-0.6665,-0.6642,-0.6637,-0.6595,-0.658,-0.6548,-0.6527,-0.6505,-0.6457,-0.6433,-0.6414,-0.6404,-0.6388,-0.6396,-0.6401,-0.6387,-0.6387,-0.6387,-0.6384,-0.6383,-0.6394,-0.6394,-0.6394,0,-0.6783,-0.6744,-0.6716,-0.6691,-0.6672,-0.6646,-0.6625,-0.6603,-0.6559,-0.6546,-0.6542,-0.6483,-0.6457,-0.6423,-0.6421,-0.6406,-0.64,-0.64,-0.6389,-0.6389,-0.6388,-0.6385,-0.6384,-0.6396,-0.6395,-0.6395,-0.6395,0,-0.6759,-0.6732,-0.6719,-0.6678,-0.6658,-0.6635,-0.6604,-0.6586,-0.657,-0.6548,-0.6517,-0.6486,-0.6452,-0.6443,-0.6426,-0.6406,-0.6405,-0.6396,-0.6389,-0.639,-0.6386,-0.6384,-0.6397,-0.6397,-0.6396,-0.6396,0,0,-0.6767,-0.6713,-0.6708,-0.669,-0.6649,-0.6628,-0.6605,-0.6572,-0.6558,-0.653,-0.6509,-0.6471,-0.6463,-0.6442,-0.6423,-0.6411,-0.6406,-0.6403,-0.6402,-0.6405,-0.6384,-0.6391,-0.6389,-0.6396,-0.6396,-0.6396,-0.6387,0,-0.6757,-0.6713,-0.6689,-0.6656,-0.6632,-0.6608,-0.6588,-0.6561,-0.6541,-0.6518,-0.6495,-0.6469,-0.646,-0.6447,-0.6434,-0.6409,-0.6401,-0.641,-0.6377,-0.6377,-0.6386,-0.6387,-0.6394,-0.6387,-0.6385,-0.6385,-0.6385,0,-0.6738,-0.6711,-0.6676,-0.664,-0.6628,-0.6611,-0.658,-0.6558,-0.6528,-0.6514,-0.6492,-0.6474,-0.6449,-0.6445,-0.6411,-0.6418,-0.6404,-0.639,-0.6389,-0.6384,-0.638,-0.6382,-0.6384,-0.6383,-0.6382,-0.6382,-0.6382,0,-0.6748,-0.6703,-0.6676,-0.6662,-0.6618,-0.6607,-0.6588,-0.6558,-0.6541,-0.6514,-0.6502,-0.6473,-0.6457,-0.6435,-0.641,-0.6409,-0.6379,-0.6372,-0.6367,-0.6368,-0.636,-0.6361,-0.6359,-0.6352,-0.6352,-0.6352,-0.6352,0,-0.6739,-0.6718,-0.668,-0.6664,-0.6641,-0.6614,-0.6592,-0.6571,-0.6545,-0.6525,-0.6504,-0.6486,-0.6453,-0.6431,-0.6412,-0.6387,-0.638,-0.6369,-0.6363,-0.637,-0.6372,-0.6359,-0.6359,-0.6352,-0.6352,-0.6352,-0.6352,0,-0.6745,-0.6719,-0.6689,-0.6651,-0.6641,-0.6626,-0.6594,-0.6578,-0.6557,-0.6532,-0.6525,-0.6492,-0.6466,-0.6439,-0.6402,-0.6389,-0.6366,-0.6359,-0.6376,-0.6373,-0.6369,-0.637,-0.6359,-0.6356,-0.6351,-0.6351,-0.6352,0,-0.6741,-0.6725,-0.6686,-0.6671,-0.6654,-0.663,-0.6612,-0.6586,-0.6569,-0.6534,-0.6523,-0.6495,-0.647,-0.6429,-0.6403,-0.6375,-0.6368,-0.6366,-0.6363,-0.6371,-0.6368,-0.6369,-0.6368,-0.6366,-0.6367,-0.6367,-0.6367,0,-0.6736,-0.6724,-0.67,-0.6672,-0.6652,-0.6628,-0.6604,-0.6593,-0.6562,-0.6544,-0.6517,-0.6498,-0.6462,-0.6435,-0.6405,-0.6387,-0.6372,-0.6368,-0.6366,-0.6372,-0.6383,-0.6377,-0.6378,-0.6368,-0.6368,-0.6368,-0.6368,-0.6368,-0.6736,-0.6722,-0.6693,-0.6667,-0.6646,-0.6625,-0.6608,-0.6586,-0.6563,-0.6532,-0.6518,-0.6491,-0.6463,-0.6422,-0.6404,-0.6383,-0.6379,-0.6374,-0.6373,-0.6373,-0.6375,-0.6387,-0.6377,-0.6377,-0.6377,-0.6377,-0.6377,0,-0.673,-0.6711,-0.6688,-0.6655,-0.6635,-0.6624,-0.6598,-0.6582,-0.6558,-0.6534,-0.6511,-0.6481,-0.6455,-0.6428,-0.6401,-0.6389,-0.6382,-0.6383,-0.6383,-0.638,-0.638,-0.6385,-0.639,-0.639,-0.639,-0.639,-0.639,-0.639,-0.6725,-0.67,-0.6685,-0.665,-0.6631,-0.6605,-0.6591,-0.6571,-0.6552,-0.6519,-0.6498,-0.648,-0.6455,-0.6426,-0.6402,-0.6395,-0.6386,-0.6389,-0.638,-0.638,-0.6379,-0.6378,-0.6383,-0.6387,-0.6387,-0.6382,-0.6382,-0.6381]},{"header":{"parameterUnit":"m.s-1","parameterCategory":1,"la1":30.2991,"la2":30.254,"lo1":-89.0895,"lo2":-89.0444,"dy":0.0017,"dx":0.0017,"nx":28,"ny":28,"refTime":"2025-02-28T09:00:00:Z","depth":0,"parameterNumber":3,"parameterNumberName":"V-component_of_WINDS"},"data":[0,0,0,0,0,0,0,0,0,0,0,0,0,0,0,0,0,0,0,0,0,0,0,0,0,0,0,0,0,0,0,0,0,0,0,0,0,0,0,0,0,0,0,0,0,0,0,0,0,0,0,0,0,0,0,0,0,0,2.1044,2.1044,0,2.1018,2.1018,2.1018,2.1077,2.1079,2.1081,2.1082,2.1053,2.105,2.1048,0,0,0,0,0,0,0,0,0,0,0,0,0,2.114,2.1138,2.1044,2.1044,2.1043,2.1019,2.1018,2.1018,2.1077,2.1079,2.1081,2.1083,2.1054,2.1051,2.1048,0,0,0,0,0,0,0,0,0,0,0,0,0,2.1105,2.1138,2.1044,2.107,2.1072,2.1019,2.1018,2.1018,2.1076,2.1079,2.1082,2.1084,2.1055,2.1051,2.1047,2.0967,0,0,2.1035,2.1034,0,0,0,0,0,0,0,0,2.1107,2.1101,2.1066,2.1068,2.107,2.1054,2.1041,2.1,2.1075,2.1074,2.1083,2.1086,2.1051,2.1047,2.1036,2.0965,2.0964,2.1035,2.1033,2.1031,2.103,0,0,0,0,0,0,0,2.1109,2.1103,2.1034,2.1066,2.1068,2.1082,2.108,2.1034,2.1047,2.1075,2.1079,2.1075,2.1052,2.104,2.1036,2.0964,2.1035,2.1032,2.1029,2.1028,2.0827,2.0824,0,0,0,0,0,0,2.1109,2.1104,2.1035,2.1033,2.1096,2.1078,2.1075,2.1056,2.1047,2.1049,2.1073,2.1078,2.1045,2.104,2.1035,2.0941,2.1031,2.1028,2.1025,2.083,2.0826,2.0823,0,0,0,0,0,0,2.1111,2.1102,2.1036,2.107,2.1063,2.1073,2.1051,2.1054,2.1042,2.1046,2.1048,2.1058,2.1047,2.104,2.0984,2.0941,2.1026,2.1022,2.0833,2.0828,2.0824,2.0752,0,0,0,0,0,0,2.1113,2.1102,2.1073,2.1069,2.106,2.0985,2.1048,2.1052,2.1035,2.1042,2.1033,2.1034,2.1049,2.0989,2.098,2.0937,2.1019,2.0837,2.0831,2.0826,2.0758,2.0745,2.0734,0,0,0,0,0,2.1117,2.1052,2.1071,2.1062,2.1023,2.0983,2.0978,2.0997,2.1032,2.1001,2.1004,2.1034,2.0947,2.0983,2.0973,2.0928,2.084,2.0833,2.0826,2.0763,2.0748,2.0735,0,0,0,0,0,0,2.1049,2.1052,2.1073,2.1005,2.0993,2.0993,2.0955,2.098,2.0957,2.0964,2.0988,2.0985,2.0924,2.092,2.096,2.0851,2.0899,2.089,2.0855,2.084,2.0829,2.083,2.1016,0,0,0,0,0,2.1026,2.0994,2.0998,2.0938,2.0931,2.0944,2.0927,2.0943,2.0931,2.0926,2.0925,2.0911,2.0881,2.0861,2.0833,2.0758,2.0757,2.0722,2.0711,2.0701,2.0692,2.0653,2.0638,2.08,2.08,2.08,0,0,2.0979,2.0977,2.0954,2.0925,2.0917,2.0883,2.0939,2.09,2.0874,2.092,2.0867,2.0865,2.0852,2.0786,2.0757,2.0781,2.0648,2.0692,2.0684,2.0681,2.0645,2.0629,2.0616,2.0795,2.0796,2.0797,0,0,2.0875,2.087,2.082,2.0812,2.0801,2.081,2.0798,2.0794,2.0795,2.0743,2.0776,2.0746,2.0693,2.0682,2.067,2.0563,2.0589,2.0553,2.0491,2.0452,2.044,2.0428,2.0391,2.0377,2.0545,2.0545,2.0544,0,2.0817,2.0767,2.0791,2.075,2.0735,2.0777,2.0726,2.0717,2.0696,2.0685,2.0713,2.0649,2.0643,2.0575,2.0549,2.0538,2.0524,2.0554,2.044,2.0429,2.0419,2.0383,2.0368,2.054,2.0541,2.0541,2.0542,0,2.0697,2.0662,2.0622,2.0604,2.0585,2.0539,2.0555,2.0533,2.0551,2.0557,2.0503,2.0497,2.047,2.0455,2.0471,2.039,2.0405,2.0436,2.0486,2.0399,2.0365,2.0352,2.0534,2.0536,2.0537,2.0538,0,0,2.0548,2.0545,2.053,2.0522,2.0513,2.0486,2.0442,2.0417,2.0397,2.0382,2.0346,2.0301,2.033,2.0315,2.0331,2.0297,2.0214,2.0332,2.0332,2.031,2.0124,2.01,2.0084,2.0231,2.0229,2.0227,2.0125,0,2.0446,2.0372,2.0392,2.0318,2.0286,2.0325,2.0287,2.0277,2.0281,2.0254,2.0259,2.0227,2.0267,2.0259,2.0227,2.023,2.0176,2.0238,2.0197,2.0195,2.0199,2.0067,2.0042,1.9946,2.0112,2.011,2.0108,0,2.0316,2.0298,2.022,2.0218,2.0205,2.0171,2.0149,2.0123,2.0112,2.0118,2.0103,2.0126,2.0082,2.0132,2.0072,2.0113,2.0098,2.0097,2.0094,2.009,2.0146,2.0059,1.9915,1.9901,2.0088,2.0089,2.0091,0,2.0216,2.0172,2.012,2.0112,2.0108,2.0083,2.008,2.0072,2.0056,2.0037,2.0026,2.0002,1.9988,1.9968,1.9984,2.0019,1.9921,1.9972,1.9924,1.9923,1.9901,1.9902,1.9752,1.9891,1.9891,1.9892,1.9892,0,2.0099,2.005,2.0075,2.0043,1.999,2.0014,1.9959,1.9961,1.9954,1.9923,1.9955,1.9924,1.9947,1.9918,1.993,1.9878,1.9872,1.9875,1.9878,1.9872,1.9871,1.9861,1.9868,1.9888,1.9889,1.9889,1.989,0,1.9978,1.9993,1.9939,1.994,1.9939,1.99,1.99,1.987,1.9878,1.9838,1.983,1.9841,1.9809,1.9823,1.9788,1.9797,1.973,1.9743,1.9734,1.9737,1.9688,1.9692,1.9526,1.9506,1.9658,1.9657,1.9655,0,1.9902,1.9866,1.9864,1.9846,1.9841,1.9811,1.9795,1.9818,1.9799,1.9785,1.9757,1.9728,1.9706,1.9653,1.9658,1.9632,1.9644,1.9588,1.964,1.9635,1.9643,1.9645,1.9642,1.9577,1.9575,1.9574,1.9572,0,1.9767,1.9776,1.9753,1.9731,1.9712,1.9696,1.9682,1.9665,1.9687,1.9665,1.9634,1.9617,1.9583,1.9554,1.9531,1.9527,1.9553,1.9556,1.9544,1.9536,1.9533,1.9534,1.9705,1.956,1.9561,1.9562,1.9562,1.9563,1.9666,1.9636,1.963,1.9603,1.9596,1.9583,1.9555,1.956,1.9534,1.951,1.9524,1.9487,1.9478,1.9451,1.9444,1.9415,1.9437,1.9418,1.9414,1.9409,1.9402,1.9538,1.941,1.9411,1.9411,1.9412,1.9412,0,1.9532,1.9531,1.9506,1.9487,1.9465,1.9493,1.948,1.946,1.9428,1.9418,1.9396,1.936,1.9332,1.9335,1.931,1.9286,1.9297,1.9278,1.928,1.9279,1.9384,1.9398,1.927,1.927,1.927,1.927,1.927,1.927,1.946,1.9411,1.942,1.9367,1.9366,1.9331,1.9321,1.9309,1.9302,1.9261,1.9238,1.9241,1.9236,1.9211,1.9186,1.9188,1.9177,1.9153,1.9159,1.9257,1.9271,1.9285,1.9298,1.9151,1.9151,1.9056,1.9056,1.9055]}]]